Location: Acurenam
(1.0323°N, 10.6488°E)
Time: 16:22:43
(UTC+00:00)

Daily predictions for brighter satellites

Satellite Brightness Start Highest point End
(mag) Time Altitude Azimuth Time Altitude Azimuth Time Altitude Azimuth
ARIANE 44LP R/B 2.7 17:31:28 10° W 17:33:38 61° S 17:39:32 10° E
Cosmos 1812 Rocket 4.4 17:35:34 10° SSW 17:39:57 59° W 17:44:19 10° N
Cosmos 2180 Rocket 4.5 17:34:10 10° S 17:40:20 77° E 17:46:26 10° N
ERS-2 3.6 17:39:23 10° ENE 17:41:51 18° ESE 17:44:20 10° SE
Mugunghwa Rocket 4.0 17:40:55 10° WSW 17:47:14 85° NNW 17:53:47 10° ENE
Centaur D-1A AC-35 3.4 17:44:01 10° SW 17:47:36 40° SE 17:58:19 10° ENE
Cosmos 192 4.4 17:49:07 10° NNW 17:54:01 87° WSW 17:58:55 10° S
GPS 2-04 Rocket1 3.5 17:50:41 10° WSW 17:54:44 54° NW 17:58:46 10° NE
ARGOS 4.2 17:50:36 10° SE 17:54:51 24° ENE 17:59:03 10° NNE
H-2A R/B 3.0 17:51:25 10° S 17:55:09 55° WSW 17:58:55 10° NNW
ATLAS 3B R/B 3.6 17:48:18 10° NW 17:55:31 57° WSW 18:02:51 10° S
Delta 2 Rocket 3.9 17:50:29 10° SW 17:55:53 60° SE 18:00:46 10° ENE
Cosmos 1825 3.3 17:52:30 10° NNW 17:56:07 47° W 17:59:45 10° SSW
Cosmos 2221 4.2 17:54:59 12° ESE 17:56:15 14° E 17:58:24 10° ENE
Hubble Space Telescope 1.9 17:54:23 10° NW 17:58:04 31° NNE 18:01:04 14° E
CZ-4 R/B 4.5 17:54:30 10° SSE 17:58:31 57° ENE 18:02:33 10° N
CZ-4B R/B 4.0 17:54:34 10° S 17:59:41 51° WSW 18:04:49 10° NNW
Cosmos 1076 Rocket 3.5 17:56:19 10° N 18:00:26 55° E 18:04:36 10° SSE
H-2A R/B 2.2 17:56:33 10° SSE 18:01:20 47° ENE 18:06:02 10° N
YAOGAN 1 3.3 18:03:11 10° SE 18:07:02 33° ENE 18:10:55 10° NNE
CZ-4 R/B 1.9 18:04:01 10° SSE 18:08:00 42° ENE 18:11:56 10° N
Cosmos 1689 Rocket 2.0 18:05:53 10° N 18:08:38 78° WNW 18:11:26 10° SSW
Cosmos 2263 Rocket 4.1 18:04:38 10° SW 18:09:34 33° WNW 18:14:30 10° NNW
Cosmos 1980 4.0 18:05:25 10° NNW 18:11:02 71° WSW 18:16:41 10° S
ARIANE 5 DEB (SYLDA) 1.4 18:10:11 10° WSW 18:12:14 46° S 18:12:56 34° SE
Cosmos 1844 Rocket 3.3 18:10:39 10° SSE 18:15:34 32° ESE 18:20:27 10° NE
Cosmos 1809 Rocket 4.5 18:11:32 10° N 18:17:33 58° E 18:23:36 10° SSE
Ariane H10 4.2 18:14:39 10° WSW 18:18:55 73° S 18:35:08 18° E
Ariane H10 4.2 18:14:39 10° WSW 18:18:56 73° S 18:35:09 18° E
Ariane H10 4.2 18:14:39 10° WSW 18:18:56 73° S 18:35:06 18° E
Ariane H10 4.2 18:14:40 10° WSW 18:18:56 73° S 18:35:09 18° E
SL-16 R/B 3.0 18:14:06 10° NNE 18:18:58 30° ENE 18:21:00 24° ESE
OAO 3 Rocket 4.0 18:17:30 10° SSW 18:21:26 27° SE 18:22:07 26° SE
SAR-Lupe-4 3.8 18:19:36 10° N 18:23:09 69° WNW 18:26:43 10° SSW
Cosmos 2292 Rocket 2.4 18:21:34 10° N 18:24:30 70° E 18:25:35 34° SSE
Cosmos 1844 4.2 18:23:43 10° S 18:28:57 35° ESE 18:34:09 10° NE
Geosat 4.3 18:31:00 32° ESE 18:32:49 46° ENE 18:37:35 10° N
Meteor 2-3 Rocket 3.8 18:27:37 10° N 18:32:59 50° E 18:35:52 26° SSE
Palapa 6 Rocket 3.4 18:28:20 10° WNW 18:34:29 79° NNE 18:36:25 39° ESE
CSL-04 Rocket 4.2 18:34:51 33° E 18:35:29 34° ENE 18:40:12 10° NNE
Cosmos 2151 2.8 18:33:40 10° N 18:37:53 90° SE 18:40:30 22° S
FUSE 4.5 18:35:55 10° W 18:41:03 49° SSW 18:42:55 34° SSE
Cosmos 1842 Rocket 3.5 18:39:27 25° SSE 18:41:55 65° E 18:46:19 10° NNE
ARIANE 5 R/B 2.9 18:40:34 10° WNW 18:41:49 31° WNW 18:41:49 31° WNW
USA 267 4.0 18:41:38 29° ENE 18:43:14 32° NE 18:48:55 10° N
Cosmos 1633 3.6 18:42:57 10° NNW 18:46:17 43° W 18:48:24 20° SSW
Cosmos 2266 Rocket 3.9 18:41:20 10° N 18:47:19 61° E 18:49:52 34° SSE
USA 142 4.1 18:41:14 10° NW 18:48:24 52° NNE 18:49:01 47° ENE
IRS-1C Rocket 4.5 18:43:24 10° S 18:48:37 63° WSW 18:53:48 10° NNW
Meteor 2-16 Rocket 4.4 18:49:02 10° N 18:55:04 62° E 18:56:32 48° SE
Cosmos 2237 Rocket 4.2 18:50:41 10° NW 18:55:09 25° WSW 18:59:40 10° SSW
Meteor 2-15 4.5 18:49:18 10° S 18:55:22 77° W 19:01:23 10° N
Meteor 2-21 Rocket 4.3 18:49:26 10° N 18:55:34 80° E 18:58:53 29° S
Cosmos 1655 Rocket 4.0 18:54:25 10° N 19:00:37 79° W 19:05:20 19° S
Okean-O 3.3 18:59:08 31° SSW 19:00:59 53° WSW 19:05:17 10° NNW
GPS 2-12 Rocket1 4.3 18:57:00 10° W 19:01:13 32° SSW 19:01:13 32° SSW
Spelda 3.4 19:00:40 10° W 19:04:21 88° N 19:06:49 46° E
GEOS 3 Rocket 3.7 19:07:09 61° S 19:08:01 76° WSW 19:13:22 10° NNW
Cosmos 1486 Rocket 4.5 19:18:21 10° SSW 19:23:31 58° WNW 19:28:43 10° N
Cosmos 1553 Rocket 4.1 19:28:04 62° NNW 19:28:04 62° NNW 19:33:04 10° N
Maqsat-H 3.2 19:13:02 10° W 19:28:39 52° SSW 19:28:41 52° SSW
Hubble Space Telescope 3.5 19:35:21 10° W 19:36:24 16° W 19:36:24 16° W
BLOCK DM-SL R/B 4.5 19:21:57 10° W 19:51:17 81° S 19:51:20 81° S
SL-16 R/B 4.4 19:59:00 10° WNW 20:02:47 18° WSW 20:02:57 18° WSW
ARIANE 5 R/B 4.0 19:31:03 10° W 20:24:59 67° W 20:24:59 67° W
